Volver al catálogo

FENGYUN 1C DEB

ActivoPO
NORAD 30656·DEBRIS·🇨🇳 China

Lanzado May 10, 1999 desde Taiyuan Satellite Launch Center

Loading…

Próximos Pases (próximas 24 horas)

TLE

ActualizadoSource: Space-Track

Época: Sep 14, 2026, 18:30 UTC

1 30656U 99025APN 26257.77143065  .00004570  00000-0  12037-2 0  9991
2 30656  99.0191  95.1275 0030701 347.8114  12.2331 14.49283336 10735

Sigue FENGYUN 1C DEB en tiempo real con AllMySat

Download on the App Store